www.pogodaiklimat.ru
ПОГОДА в Букс-Зуре
Время
(UTC), дата
16 13.11
17 13.11
18 13.11
19 13.11
21 13.11
00 14.11
01 14.11
02 14.11
03 14.11
04 14.11
05 14.11
06 14.11
07 14.11
08 14.11
09 14.11
10 14.11
11 14.11
12 14.11
13 14.11
14 14.11
15 14.11
16 14.11
17 14.11
18 14.11
19 14.11
20 14.11
21 14.11
22 14.11
23 14.11
00 15.11
01 15.11
02 15.11
03 15.11
04 15.11
05 15.11
06 15.11
07 15.11
08 15.11
09 15.11
10 15.11
11 15.11
12 15.11
13 15.11
14 15.11
15 15.11
16 15.11
17 15.11
18 15.11
19 15.11
20 15.11
21 15.11
22 15.11
23 15.11
00 16.11
01 16.11
02 16.11
03 16.11
04 16.11
05 16.11
06 16.11
07 16.11
08 16.11
09 16.11
10 16.11
11 16.11
12 16.11
13 16.11
14 16.11
15 16.11
16 16.11
17 16.11
18 16.11
19 16.11
20 16.11
21 16.11
22 16.11
23 16.11
00 17.11
01 17.11
02 17.11
03 17.11
04 17.11
05 17.11
06 17.11
07 17.11
08 17.11
09 17.11
10 17.11
11 17.11
12 17.11
13 17.11
14 17.11
15 17.11
16 17.11
17 17.11
18 17.11
19 17.11
20 17.11
21 17.11
22 17.11
23 17.11
00 18.11
01 18.11
02 18.11
03 18.11
04 18.11
05 18.11
06 18.11
07 18.11
08 18.11
09 18.11
10 18.11
11 18.11
12 18.11
13 18.11
14 18.11
15 18.11
16 18.11
17 18.11
18 18.11
19 18.11
20 18.11
21 18.11
22 18.11
23 18.11
00 19.11
01 19.11
02 19.11
03 19.11
04 19.11
05 19.11
06 19.11
07 19.11
08 19.11
09 19.11
10 19.11
11 19.11
12 19.11
13 19.11
14 19.11
15 19.11
16 19.11
17 19.11
18 19.11
19 19.11
20 19.11
21 19.11
22 19.11
23 19.11
00 20.11
01 20.11
02 20.11
03 20.11
04 20.11
05 20.11
06 20.11
07 20.11
08 20.11
09 20.11
10 20.11
11 20.11
12 20.11
13 20.11
14 20.11
15 20.11
16 20.11
17 20.11
Ветер
(напр.,м/с)
Видим. Явления Облачность Т
(С)
Тd
(С)
f
(%)
Тe
(С)
Тes
(С)
Комфортность P
(гПа)
Po
(гПа)
Тmin
(С)
Tmax
(С)
R
(мм)
R24
(мм)
S
(см)
ЮЗ 1
{3}
н/о н/о +5.5 +0.4 70 +5 +5 тепло 1007.1 960.7
ЮЗ 1
{2}
н/о н/о +5.5 -0.1 67 +6 +6 тепло 1007.6 961.1
штиль 0
{8}
12 км дымка 9/9 1140 м
[]
+4.6 +1.0 77 +4 +4 по сезону 1007.9 961.3 +7.4
штиль 0
{1}
н/о н/о +3.6 +1.2 84 +3 +3 по сезону 1008.3 961.5
штиль 0
{1}
12 км дымка ясно +0.3 -0.5 94 -1 -1 по сезону 1008.4 961.0
ЮЗ 1
{2}
10 км дымка 6/0 2000 м
[]
-0.4 -1.4 93 -3 -3 прохладно 1006.6 959.2
штиль 0
{1}
н/о н/о -1.1 -1.5 97 -2 -2 по сезону 1005.9 958.4
Ю 1
{1}
н/о н/о -1.6 -2.1 96 -2 -2 по сезону 1005.4 957.8
СВ 1
{1}
3000 м дымка 10/10 120 м
[]
-1.5 -2.0 96 -2 -2 по сезону 1004.7 957.2
штиль 0
{1}
н/о н/о -1.2 -1.5 98 -3 -3 прохладно 1004.3 956.8
штиль 0
{1}
н/о н/о -1.0 -1.1 99 -2 -2 по сезону 1004.1 956.7
ЮЗ 1
{2}
900 м туман ?/? -1.0 -1.4 97 -2 -2 по сезону 1004.7 957.3 -1.7
ЮЗ 1
{2}
н/о н/о -0.4 -1.1 95 -1 -1 по сезону 1005.1 957.7
Ю 1
{2}
н/о н/о 0.0 -0.8 94 -1 -1 по сезону 1004.9 957.6
ЮВ 1
{2}
2000 м дымка {туман} 10/10 90 м
[]
+1.1 -0.2 91 +1 +1 по сезону 1004.4 957.3
З 2
{4}
н/о н/о +2.5 +0.7 88 -0 -0 по сезону 1005.1 958.2
Ю 1
{3}
н/о н/о +4.0 +0.4 77 +3 +3 по сезону 1004.0 957.4
Ю 1
{4}
6000 м дымка {туман} 6/6 1140 м
[]
+4.5 +0.7 76 +5 +6 тепло 1002.7 956.3
СВ 2
{3}
н/о н/о +5.6 -0.3 66 +4 +4 по сезону 1002.0 955.8
ЮВ 1
{3}
н/о н/о +5.6 +0.4 69 +6 +6 тепло 1000.9 954.8
штиль 0
{3}
30 км 10/0
[]
+4.8 +1.3 78 +4 +4 по сезону 1000.7 954.4
ЮВ 1
{2}
н/о н/о +4.4 +0.8 77 +3 +3 по сезону 999.4 953.1
В 1
{2}
н/о н/о +4.5 +0.4 75 +3 +3 по сезону 998.7 952.5
В 2
{5}
18 км 10/0
[]
+5.8 -0.2 65 +4 +4 по сезону 997.8 951.8 +5.8
СВ 2
{4}
н/о н/о +6.0 -0.5 63 +4 +4 по сезону 997.4 951.5
СВ 2
{4}
н/о н/о +6.4 -1.0 59 +5 +5 тепло 997.0 951.2
З 1
{4}
12 км дымка 10/0
[]
+4.0 +0.2 76 +4 +4 по сезону 997.3 951.1
З 1
{2}
н/о н/о +3.0 +0.2 82 +3 +3 по сезону 997.1 950.7
СЗ 1
{3}
н/о н/о +2.8 +0.3 84 +1 +1 по сезону 996.5 950.1
Ю 1
{4}
10 км дымка 10/0
[]
+3.0 +0.3 82 +1 +1 по сезону 996.5 950.1
ЮВ 1
{2}
н/о н/о +3.3 0.0 79 +3 +3 по сезону 995.7 949.4
В 2
{5}
н/о н/о +4.0 -0.2 74 +1 +1 по сезону 994.5 948.4
В 2
{6}
9000 м дымка 9/0 2000 м
[]
+4.2 -0.9 69 +2 +2 по сезону 994.1 948.0
В 1
{6}
н/о н/о +4.6 -1.5 65 +4 +4 по сезону 994.4 948.4
ЮВ 2
{3}
н/о н/о +3.7 -0.9 72 +2 +2 по сезону 994.9 948.7
ЮЗ 3
{7}
13 км мгла 10/0
[]
+3.6 +1.0 83 -0 -0 по сезону 997.9 951.6 +1.9
Ю 3
{7}
н/о н/о +3.0 +1.6 91 -1 -1 по сезону 999.6 953.1 0.4
ЮЗ 1
{5}
н/о н/о +3.1 +1.6 90 +1 +1 по сезону 1001.4 954.8
ЮЗ 2
{7}
3000 м в посл. час дождь 10/10 120 м
[]
+3.9 +2.1 88 +1 +1 по сезону 1002.1 955.6
ЮЗ 3
{6}
н/о н/о +5.0 +2.3 83 +2 +2 по сезону 1002.7 956.4
ЮЗ 3
{6}
н/о н/о +5.2 +2.0 80 +2 +2 по сезону 1002.3 956.0
ЮЗ 2
{7}
16 км {дождь} 8/8 840 м
[]
+5.6 +1.8 77 +4 +4 по сезону 1002.2 956.0
ЮЗ 1
{4}
н/о н/о +5.8 +1.9 76 +5 +5 тепло 1002.3 956.1
З 1
{3}
н/о н/о +5.7 +1.8 76 +6 +6 тепло 1002.4 956.2
штиль 0
{4}
30 км 9/0
[]
+5.7 +1.6 75 +5 +5 тепло 1002.5 956.3
СЗ 1
{1}
н/о н/о +4.6 +2.1 84 +4 +4 по сезону 1003.2 956.8
Ю 1
{1}
н/о н/о +4.2 +2.2 87 +4 +4 по сезону 1003.9 957.4
штиль 0
{4}
12 км дымка 10/0
[]
+3.1 +2.1 93 +2 +2 по сезону 1004.0 957.3 +6.1
ЮЗ 1
{2}
н/о н/о +3.2 +2.0 92 +3 +3 по сезону 1004.3 957.6
штиль 0
{1}
н/о н/о +2.1 +1.4 95 +1 +1 по сезону 1004.7 957.8
Ю 1
{2}
12 км дымка 9/0 2000 м
[]
+2.4 +1.7 95 +2 +2 по сезону 1004.8 957.9
ЮЗ 1
{1}
н/о н/о +2.6 +1.7 94 +2 +2 по сезону 1005.1 958.3
штиль 0
{1}
н/о н/о +2.1 +1.5 96 +1 +1 по сезону 1005.3 958.4
С 1
{2}
6000 м дымка 9/0
[]
+1.4 +1.1 98 +1 +1 по сезону 1005.5 958.4
СЗ 1
{1}
н/о н/о +0.7 +0.3 97 0 0 по сезону 1005.9 958.7
штиль 0
{1}
н/о н/о +0.2 -0.1 98 -1 -1 по сезону 1005.9 958.6
З 1
{2}
4000 м дымка 10/10 630 м
[]
+0.8 +0.3 96 -1 -1 по сезону 1006.7 959.5
Ю 1
{2}
н/о н/о +1.1 +0.5 96 0 0 по сезону 1007.3 960.1
З 1
{3}
н/о н/о +1.5 +0.7 94 -1 -1 по сезону 1007.8 960.6
В 1
{4}
6000 м в посл. час туман 10/10 630 м
[]
+1.5 +0.7 94 +1 +1 по сезону 1008.3 961.1 0.0 0.4
ЮЗ 1
{2}
н/о н/о +1.1 +0.5 96 0 0 по сезону 1009.6 962.3
ЮЗ 1
{2}
н/о н/о +2.3 +1.2 92 0 0 по сезону 1010.7 963.5
ЮЗ 1
{2}
4000 м дымка 10/10 330 м
[]
+3.1 +2.0 92 +3 +3 по сезону 1011.1 964.1
З 1
{2}
н/о н/о +4.4 +2.3 86 +4 +4 по сезону 1011.4 964.6
СВ 1
{2}
н/о н/о +5.5 +2.7 82 +4 +4 по сезону 1011.4 964.8
З 1
{2}
7000 м дымка 6/6 1500 м
[]
+7.1 +2.8 74 +7 +9 тепло 1011.0 964.6
СЗ 1
{3}
н/о н/о +8.2 +2.8 69 +8 +8 тепло 1010.3 964.2
Ю 2
{4}
н/о н/о +8.3 +1.9 64 +7 +7 тепло 1010.6 964.5
ЮЗ 1
{4}
12 км дымка 3/3 1500 м
[]
+7.9 +1.8 65 +8 +9 тепло 1010.7 964.5
ЮЗ 1
{2}
н/о н/о +5.3 +2.2 80 +5 +5 тепло 1011.9 965.2
штиль 0
{1}
н/о н/о +3.3 +2.0 91 +2 +2 по сезону 1012.5 965.4
Ю 1
{4}
10 км дымка ясно +2.4 +1.6 94 +2 +2 по сезону 1012.7 965.5 +8.6
Ю 1
{2}
н/о н/о +1.0 +0.5 96 0 0 по сезону 1013.4 965.9
штиль 0
{1}
н/о н/о +0.9 +0.2 95 -0 -0 по сезону 1013.1 965.6
ЮЗ 1
{2}
3000 м дымка ясно +0.6 0.0 96 -0 -0 по сезону 1013.3 965.7
штиль 0
{2}
н/о н/о +0.5 -0.1 96 -1 -1 по сезону 1013.3 965.7
Ю 1
{1}
н/о н/о +0.3 -0.3 96 -0 -0 по сезону 1013.2 965.6
штиль 0
{2}
2000 м дымка {туман} 10/10 30 м
[]
+0.6 0.0 96 -1 -1 по сезону 1012.7 965.2
ЮВ 1
{1}
н/о н/о +0.5 +0.1 97 -0 -0 по сезону 1011.9 964.4
штиль 0
{1}
н/о н/о +0.8 +0.3 96 -1 -1 по сезону 1011.1 963.7
С 1
{1}
2000 м дымка 10/10 120 м
[]
+1.6 +0.9 95 +1 +1 по сезону 1010.9 963.6
штиль 0
{1}
н/о н/о +2.5 +1.4 92 +1 +1 по сезону 1010.1 963.0
СВ 2
{4}
н/о н/о +3.7 +2.1 89 +1 +1 по сезону 1009.2 962.4
штиль 0
{4}
3000 м дымка 10/10 120 м
[]
+3.6 +2.1 90 +2 +2 по сезону 1009.1 962.2 +0.1
СВ 1
{1}
н/о н/о +3.5 +1.9 89 +3 +3 по сезону 1007.9 961.1
штиль 0
{1}
н/о н/о +4.0 +2.2 88 +3 +3 по сезону 1006.9 960.2
штиль 0
{2}
2000 м слаб. дождь 10/10 180 м
[]
+3.9 +2.7 92 +3 +3 по сезону 1006.5 959.8 0.6
С 1
{3}
н/о н/о +3.7 +2.0 89 +2 +2 по сезону 1006.2 959.5 1
С 2
{3}
н/о н/о +3.3 +1.7 89 +1 +1 по сезону 1006.1 959.3 0.8
С 1
{3}
4000 м слаб. дождь 10/10 420 м
[]
+3.7 +2.4 91 +3 +3 по сезону 1005.4 958.7 0.8
З 1
{2}
н/о н/о +3.7 +1.9 88 +2 +2 по сезону 1004.9 958.3
ЮЗ 2
{4}
н/о н/о +3.6 +2.0 89 +1 +1 по сезону 1004.8 958.1
ЮЗ 1
{4}
4000 м слаб. дождь 10/10 540 м
[]
+3.1 +2.1 93 +1 +1 по сезону 1005.1 958.3 0.1
ЮЗ 1
{3}
н/о н/о +2.8 +1.6 92 +1 +1 по сезону 1006.1 959.2 0.4
ЮЗ 1
{2}
н/о н/о +2.7 +1.7 93 +1 +1 по сезону 1006.0 959.1 0.1
ЮЗ 1
{4}
4000 м слаб. морось {дождь} 10/10 420 м
[]
+3.0 +2.1 94 +1 +1 по сезону 1006.6 959.8 +4.0
ЮЗ 2
{4}
н/о н/о +3.0 +2.0 93 -0 -0 по сезону 1006.9 960.0 0.1
ЮЗ 2
{4}
н/о н/о +3.0 +1.8 92 0 0 по сезону 1007.0 960.1
Ю 2
{4}
3000 м дымка 10/10 240 м
[]
+3.1 +2.0 92 +1 +1 по сезону 1007.3 960.4
З 1
{4}
н/о н/о +3.4 +2.0 91 +2 +2 по сезону 1007.2 960.4
ЮЗ 2
{3}
н/о н/о +3.5 +2.0 90 +1 +1 по сезону 1007.5 960.7
ЮЗ 3
{5}
3000 м дымка 10/10 120 м
[]
+3.6 +2.1 90 0 0 по сезону 1007.5 960.7
ЮЗ 3
{6}
н/о н/о +3.6 +1.9 89 -0 -0 по сезону 1007.5 960.7
ЮЗ 3
{6}
н/о н/о +3.5 +1.7 88 -1 -1 по сезону 1007.6 960.8
ЮЗ 3
{7}
3000 м слаб. морось 10/10 120 м
[]
+3.6 +1.9 89 0 0 по сезону 1008.1 961.3
ЮЗ 3
{7}
н/о н/о +2.8 +1.6 92 -1 -1 по сезону 1008.9 961.9 0.2
ЮЗ 3
{7}
н/о н/о +2.2 +0.9 91 -2 -2 по сезону 1009.6 962.5 0.2
З 3
{7}
3000 м дождь 10/10 120 м
[]
+2.1 +0.9 92 -2 -2 по сезону 1010.5 963.3 +2.1 0.7 4.9
З 4
{8}
н/о н/о +2.6 +1.2 90 -2 -2 по сезону 1011.3 964.2 0.4
З 4
{9}
н/о н/о +3.4 +2.0 91 -1 -1 по сезону 1012.3 965.3 0.1
ЮЗ 4
{10}
4000 м дымка 9/9 90 м
[]
+4.7 +2.6 86 +1 +1 по сезону 1012.2 965.4
ЮЗ 3
{8}
н/о н/о +4.8 +2.2 83 +1 +1 по сезону 1012.5 965.7
ЮЗ 4
{8}
н/о н/о +5.6 +2.6 81 +2 +2 по сезону 1012.6 965.9
ЮЗ 4
{10}
н/о н/о +6.0 +2.6 79 +2 +2 по сезону 1012.5 965.9
ЮЗ 5
{9}
н/о н/о +6.9 +1.8 70 +3 +3 по сезону 1012.7 966.2
ЮЗ 4
{8}
н/о н/о +7.1 +1.5 68 +4 +4 по сезону 1012.8 966.4
ЮЗ 3
{9}
9000 м мгла 8/8 540 м
[]
+6.7 +1.4 69 +4 +4 по сезону 1013.8 967.2
Ю 2
{4}
н/о н/о +5.6 +1.3 74 +3 +3 по сезону 1014.7 967.9
Ю 1
{3}
н/о н/о +3.8 +1.6 86 +4 +4 по сезону 1015.1 968.0
Ю 1
{9}
6000 м дымка 8/8 840 м
[]
+2.9 +1.4 90 +3 +3 по сезону 1016.2 968.9 +7.3
Ю 1
{2}
н/о н/о +2.3 +1.1 92 0 0 по сезону 1016.9 969.5
Ю 1
{2}
н/о н/о +2.2 +1.2 93 +2 +2 по сезону 1017.8 970.3
ЮЗ 1
{2}
8000 м дымка 8/8 630 м
[]
+2.1 +0.8 91 0 0 по сезону 1018.2 970.7
ЮВ 1
{2}
н/о н/о +0.4 +0.1 98 -0 -0 по сезону 1018.6 970.7
штиль 0
{2}
н/о н/о +0.9 +0.1 94 -0 -0 по сезону 1018.4 970.6
штиль 0
{2}
8000 м дымка 6/0
[]
0.0 -0.4 97 -1 -1 по сезону 1018.5 970.6
ЮЗ 1
{1}
н/о н/о -0.2 -0.9 95 -1 -1 по сезону 1018.7 970.7
Ю 1
{1}
н/о н/о -0.8 -1.1 98 -2 -2 по сезону 1018.8 970.7
Ю 1
{2}
8000 м дымка 6/6 1500 м
[]
-0.5 -0.9 97 -1 -1 по сезону 1018.4 970.4
Ю 1
{1}
н/о н/о -1.0 -1.6 96 -2 -2 по сезону 1018.6 970.5
штиль 0
{1}
н/о н/о -0.7 -1.5 94 -2 -2 по сезону 1018.8 970.7
штиль 0
{2}
2000 м дымка ясно -1.5 -1.8 98 -3 -3 прохладно 1019.1 970.9 -1.6 0.5
штиль 0
{1}
н/о н/о -1.7 -1.7 100 -3 -3 прохладно 1019.4 971.1
ЮЗ 1
{1}
н/о н/о -1.4 -1.4 100 -2 -2 по сезону 1019.6 971.4
штиль 0
{1}
н/о {туман} н/о -0.3 -0.7 97 -2 -2 по сезону 1019.9 971.9
ЮЗ 1
{1}
н/о н/о +1.0 0.0 93 0 0 по сезону 1019.7 971.9
ЮЗ 1
{2}
н/о н/о +2.9 +1.3 89 +1 +1 по сезону 1018.9 971.5
С 1
{2}
3000 м дымка {туман} 10/10 1440 м
[]
+4.1 +1.9 86 +4 +4 по сезону 1018.3 971.1
СВ 1
{1}
н/о н/о +4.9 +2.5 84 +5 +5 тепло 1018.1 971.0
З 1
{2}
н/о н/о +5.1 +2.1 81 +5 +5 тепло 1018.1 971.1
штиль 0
{2}
7000 м дымка 9/9 930 м
[]
+5.4 +2.1 79 +5 +5 тепло 1018.2 971.2
СЗ 1
{2}
н/о н/о +5.2 +1.8 79 +5 +5 тепло 1018.4 971.4
Ю 1
{1}
н/о н/о +4.5 +2.7 88 +4 +4 по сезону 1018.7 971.5
штиль 0
{2}
4000 м дымка 9/9 540 м
[]
+4.0 +2.6 91 +3 +3 по сезону 1018.7 971.5 +5.4
штиль 0
{1}
н/о н/о +3.9 +2.6 91 +3 +3 по сезону 1019.1 971.8
ЮЗ 1
{1}
н/о н/о +4.0 +2.6 91 +4 +4 по сезону 1019.1 971.8
штиль 0
{1}
4000 м дымка 10/10 540 м
[]
+3.9 +2.6 91 +3 +3 по сезону 1019.1 971.8
штиль 0
{1}
н/о н/о +4.0 +2.3 89 +3 +3 по сезону 1018.8 971.6
В 1
{2}
н/о н/о +4.3 +1.7 83 +4 +4 по сезону 1018.5 971.3
СВ 1
{2}
8000 м дымка 10/10 420 м
[]
+4.2 +1.7 84 +4 +4 по сезону 1018.3 971.1
СВ 1
{2}
н/о н/о +4.3 +1.5 82 +3 +3 по сезону 1017.8 970.7
В 1
{3}
н/о н/о +4.1 +1.6 84 +3 +3 по сезону 1017.9 970.7
В 1
{3}
8000 м дымка 10/10 420 м
[]
+4.3 +1.5 82 +3 +3 по сезону 1017.5 970.4
СВ 1
{3}
н/о н/о +4.0 +1.4 83 +3 +3 по сезону 1017.3 970.1
В 1
{3}
н/о н/о +4.0 +1.7 85 +4 +4 по сезону 1017.0 969.8
В 1
{3}
6000 м дымка 10/10 420 м
[]
+3.9 +1.7 86 +4 +4 по сезону 1016.8 969.6 +3.7
СВ 2
{3}
н/о н/о +4.2 +1.7 84 +2 +2 по сезону 1016.6 969.5
СВ 1
{3}
н/о н/о +4.3 +1.8 84 +3 +3 по сезону 1016.4 969.3
ЮВ 1
{3}
3000 м дымка 10/10 90 м
[]
+4.9 +2.2 83 +5 +5 тепло 1016.3 969.3
В 1
{2}
н/о н/о +5.3 +2.3 81 +4 +4 по сезону 1015.9 969.0
В 1
{2}
н/о н/о +5.6 +2.1 78 +6 +6 тепло 1015.2 968.4
В 1
{3}
3000 м дымка 10/10 420 м
[]
+6.0 +1.7 74 +5 +5 тепло 1014.7 968.0
ЮВ 1
{2}
н/о н/о +6.1 +1.7 73 +5 +5 тепло 1014.4 967.7
Ю 1
{2}
н/о н/о +6.1 +2.5 78 +5 +5 тепло 1014.0 967.3
штиль 0
{2}
4000 м дымка 10/10 540 м
[]
+5.8 +2.2 78 +5 +5 тепло 1013.9 967.2
штиль 0
{1}
н/о н/о +5.4 +2.6 82 +5 +5 тепло 1014.0 967.2
штиль 0
{2}
н/о н/о +5.2 +2.7 84 +4 +4 по сезону 1014.1 967.3
Местоположение метеостанции Букс-Зур (Швейцария): широта 47.38 долгота 8.08 высота над уровнем моря 387 м.
В архиве по умолчанию представлена погода в Букс-Зуре за последнюю неделю. Архивные данные за месяц целиком и за предыдущие месяцы, начиная с января 2011 года, Вы можете получить, выбрав интересующий диапазон дат из раскрывающегося списка и нажав кнопку "Найти!".
*Определитесь, кто Вы:
Внимание! Время в таблицах - всемирное. Для получения местного времени необходимо прибавить поправку, которая равна 1 ч.
Смотрите также архив погоды в соседних городах и на ближайших метеорологических станциях:
Партнеры нашего сайта:      
Пояснения к столбцам:
  • Ветер - указаны скорость ветра в м/с - средняя за 10 мин, порывы в срок и между сроками (в фигурных скобках) и направление, откуда дует ветер: С - северный,
  • СВ - северо-восточный, В - восточный, ЮВ - юго-восточный, Ю - южный, ЮЗ - юго-западный, З - западный, СЗ - северо-западный.
  • Видимость - горизонтальная дальность видимости в метрах или километрах. При видимости от 1 до 10 км при отсутствии осадков обычно наблюдается дымка, при ухудшении видимости до 1 км и менее - туман. В сухую погоду видимость может ухудшаться дымом, пылью или мглою.
  • Явления - указаны атмосферные явления, наблюдавшиеся в срок или в последний час перед сроком; фигурными скобками обозначены явления, наблюдавшиеся между сроками (за 1-3 часа до срока); квадратными скобками обозначены град или гололедные отложения с указанием их диаметра в мм.
  • Облачность - указаны через наклонную черту общая и нижняя облачность в баллах и высота нижней границы облаков в метрах; квадратными скобками обозначены формы облаков: Ci - перистые, Cs - перисто-слоистые, Cc - перисто-кучевые, Ac - высококучевые, As - высокослоистые, Sc - слоисто-кучевые, Ns - слоисто-дождевые, Cu - кучевые, Cb - кучево-дождевые. Подробнее классификацию облаков см. в Атласе облаков (PDF).
  • T - Температура воздуха - температура, измеренная на высоте 2 м над землей.
  • Td - Температура точки росы - температура, при понижении до которой содержащийся в воздухе водяной пар достигнет насыщения.
  • f - Относительная влажность воздуха - влажноcть воздуха, измеренная на высоте 2 м над землей.
  • Te - Эффективная температура - температура, которую ощущает одетый по сезону человек в тени. Характеристика душности погоды. При расчете учитывается влияние влажности воздуха и скорости ветра на теплоощущения человека.
  • Tes - Эффективная температура на солнце - температура, которую ощущает человек, с поправкой на солнечный нагрев. Характеристика знойности погоды. Зависит от высоты солнца над горизонтом, облачности и скорости ветра. Ночью, в пасмурную погоду, а также при ветре 12 м/с и более поправка равна нулю.
  • P - Атмосферное давление - приведенное к уровню моря атмосферное давление.
  • Po - Атмосферное давление - измеренное на уровне метеостанции атмосферное давление.
  • Tmin - Минимальная температура - минимум температуры воздуха на высоте 2 м над землей.
  • Tmax - Максимальная температура - максимум температуры воздуха на высоте 2 м над землей.
  • R - Количество осадков - Количество выпавших осадков за период времени, мм. При наведении курсора мыши на число - период времени, за который выпало указанное количество осадков.
  • R24 - Количество осадков - Количество выпавших осадков за 24 часа, мм.
  • S - Снежный покров - Высота снежного покрова, см. При наведении курсора мыши на число - состояние снежного покрова и степень покрытия местности в баллах.